Location: Newark
(53.7496°N, 2.4752°W)
Time: 04:51:02
(UTC+00:00)

Envisat - Visible Passes

Search period start: 15 October 2019 00:00
Search period end: 25 October 2019 00:00
Orbit: 764 x 766 km, 98.1° (Epoch: 14 October)

Date Brightness Start Highest point End Pass type
(mag) Time Alt. Az. Time Alt. Az. Time Alt. Az.
15 Oct 6.0 05:59:26 10° NE 06:03:05 19° E 06:06:43 10° SE visible
15 Oct 4.9 18:59:29 10° SSW 19:04:01 32° W 19:08:35 10° NNW visible
16 Oct 3.6 18:22:00 10° S 18:27:01 61° WSW 18:32:05 10° NNW visible
16 Oct 6.3 20:06:02 10° W 20:07:08 11° W 20:08:15 10° WNW visible
17 Oct 3.0 17:45:10 10° SSE 17:50:13 73° ENE 17:55:19 10° NNW visible
17 Oct 5.6 19:26:00 10° SW 19:29:47 21° W 19:33:37 10° NW visible
18 Oct 6.2 05:48:32 10° NE 05:51:40 16° E 05:54:47 10° SE visible
18 Oct 4.5 18:47:55 10° SSW 18:52:39 39° W 18:57:26 10° NNW visible
19 Oct 3.3 18:10:39 10° S 18:15:44 74° WSW 18:20:51 10° NNW visible
19 Oct 6.1 19:53:18 10° WSW 19:55:41 13° W 19:58:04 10° NW visible
20 Oct 3.0 17:33:59 10° SSE 17:38:58 61° ENE 17:44:01 10° N visible
20 Oct 5.3 19:14:15 10° SW 19:18:24 25° W 19:22:36 10° NW visible
21 Oct 6.3 05:37:49 10° NE 05:40:14 13° E 05:42:38 10° ESE visible
21 Oct 4.1 18:36:27 10° S 18:41:20 47° W 18:46:15 10° NNW visible
22 Oct 3.0 17:59:22 10° SSE 18:04:27 88° WSW 18:09:35 10° NNW visible
22 Oct 5.9 19:41:08 10° WSW 19:44:14 16° W 19:47:22 10° NW visible
23 Oct 6.0 06:02:17 10° NE 06:06:07 21° E 06:09:55 10° SE visible
23 Oct 3.2 17:22:51 10° SE 17:27:45 51° ENE 17:32:41 10° N visible
23 Oct 5.0 19:02:35 10° SSW 19:07:02 30° W 19:11:30 10° NNW visible
24 Oct 6.6 05:27:38 10° ENE 05:28:46 11° E 05:29:54 10° E visible
24 Oct 3.7 18:25:01 10° S 18:30:01 57° W 18:35:03 10° NNW visible
